Location: Austin
(30.3000°N, 97.7500°W)
Time: 05:04:24
(UTC-06:00)

Mugunghwa Rocket - Pass Details

Date: 05 February 2026
Orbit: 936 x 1371 km, 26.7° (Epoch: 15 February)

Event Time Altitude Azimuth Distance (km) Brightness Sun altitude
Exits shadow 04:48:58 55° 136° (SE) 1,103 4.3 -32.7°
Drops below altitude 10° 04:54:09 10° 101° (E) 2,647 7.1 -31.6°
Sets 04:56:49 0° 98° (E) 3,615 8.1 -31.0°
